Weather History for Rolla, ND

Change the Weather History Date:

Wednesday, November 21, 2012

  Actual Average (KRUG) Record (KRUG)
Temperature  
Mean Temperature 34 °F -  
Max Temperature 39 °F 31 °F 54 °F (1987)
Min Temperature 28 °F 14 °F -14 °F (1978)
Degree Days  
Heating Degree Days 32    
Moisture  
Dew Point 32 °F    
Average Humidity 99    
Maximum Humidity 100    
Minimum Humidity 81    
Precipitation  
Precipitation 0.00 in - - ()
Sea Level Pressure  
Sea Level Pressure 29.74 in    
Wind  
Wind Speed 7 mph (NE)    
Max Wind Speed 18 mph    
Max Gust Speed -    
Visibility 8 miles    
Events Fog    
Averages and records for this station are not official NWS values.
T = Trace of Precipitation, MM = Missing Value Source: NWS Daily Summary

Daily Weather History Graph

Daily Weather History Graph

Search for Another Location

Airport:

Trip Planner

Search our weather history database for the weather conditions in past years. The results will help you decide how hot, cold, wet, or windy it might be!

Date:

Astronomy

Nov. 21, 2012 Rise Set
Actual Time 7:57 AM CST 4:51 PM CST
Civil Twilight 7:22 AM CST 5:26 PM CST
Nautical Twilight 6:43 AM CST 6:05 PM CST
Astronomical Twilight 6:05 AM CST 6:42 PM CST
Moon 1:36 PM CST (11/21) 12:46 AM CST (11/21)
Length of Visible Light 10h 04m
Length of Day
8h 53m
First Quarter, 62% of the Moon is Illuminated
Nov 21
First Quarter
Nov 28
Full
Dec 6
Last Quarter
Dec 13
New
Dec 19
First Quarter

Hourly Weather History & Observations

Time (CST) Temp. Windchill Dew Point Humidity Pressure Visibility Wind Dir Wind Speed Gust Speed Precip Events Conditions
12:15 AM 39.2 °F 34.2 °F 33.8 °F 81% 29.85 in 10.0 mi SW 6.9 mph - N/A   Clear
12:35 AM 37.4 °F 32.1 °F 33.8 °F 87% 29.83 in 10.0 mi WSW 6.9 mph - N/A   Clear
12:55 AM 37.4 °F 34.9 °F 33.8 °F 87% 29.84 in 10.0 mi WSW 3.5 mph - N/A   Clear
1:15 AM 35.6 °F 31.7 °F 35.6 °F 100% 29.84 in 10.0 mi SW 4.6 mph - N/A   Clear
1:35 AM 35.6 °F - 35.6 °F 100% 29.84 in 10.0 mi Calm Calm - N/A   Clear
1:55 AM 35.6 °F 32.8 °F 35.6 °F 100% 29.85 in 10.0 mi East 3.5 mph - N/A   Clear
2:15 AM 35.6 °F - 35.6 °F 100% 29.85 in 10.0 mi Calm Calm - N/A   Clear
2:35 AM 35.6 °F 31.7 °F 35.6 °F 100% 29.86 in 10.0 mi NNW 4.6 mph - N/A   Clear
2:55 AM 37.4 °F - 35.6 °F 93% 29.86 in 10.0 mi Calm Calm - N/A   Clear
3:15 AM 37.4 °F 32.1 °F 35.6 °F 93% 29.85 in 10.0 mi NNW 6.9 mph - N/A   Clear
3:35 AM 37.4 °F 32.1 °F 35.6 °F 93% 29.85 in 10.0 mi NNW 6.9 mph - N/A   Clear
3:55 AM 37.4 °F 30.8 °F 35.6 °F 93% 29.85 in 10.0 mi North 9.2 mph - N/A   Clear
4:15 AM 35.6 °F 29.2 °F 35.6 °F 100% 29.85 in 10.0 mi North 8.1 mph - N/A   Clear
4:35 AM 35.6 °F 28.0 °F 35.6 °F 100% 29.85 in 10.0 mi North 10.4 mph - N/A   Partly Cloudy
4:55 AM 35.6 °F 28.6 °F 35.6 °F 100% 29.86 in 10.0 mi North 9.2 mph - N/A   Mostly Cloudy
5:15 AM 33.8 °F 27.0 °F 33.8 °F 100% 29.85 in 10.0 mi NNE 8.1 mph - N/A   Mostly Cloudy
5:35 AM 33.8 °F 26.4 °F 33.8 °F 100% 29.85 in 10.0 mi North 9.2 mph - N/A   Overcast
5:55 AM 33.8 °F 26.4 °F 33.8 °F 100% 29.85 in 10.0 mi North 9.2 mph - N/A   Mostly Cloudy
6:15 AM 33.8 °F 26.4 °F 33.8 °F 100% 29.85 in 10.0 mi North 9.2 mph - N/A   Mostly Cloudy
6:35 AM 35.6 °F 29.2 °F 35.6 °F 100% 29.85 in 10.0 mi NNW 8.1 mph - N/A   Overcast
6:55 AM 33.8 °F 26.4 °F 33.8 °F 100% 29.85 in 10.0 mi North 9.2 mph - N/A   Overcast
7:15 AM 33.8 °F 28.6 °F 33.8 °F 100% 29.85 in 10.0 mi North 5.8 mph - N/A   Overcast
7:35 AM 33.8 °F 28.6 °F 33.8 °F 100% 29.84 in 10.0 mi NNE 5.8 mph - N/A   Overcast
7:55 AM 33.8 °F 28.6 °F 33.8 °F 100% 29.84 in 10.0 mi NNE 5.8 mph - N/A   Overcast
8:15 AM 32.0 °F 24.8 °F 32.0 °F 100% 29.84 in 10.0 mi NNE 8.1 mph - N/A   Overcast
8:35 AM 33.8 °F 27.7 °F 33.8 °F 100% 29.84 in 10.0 mi NNE 6.9 mph - N/A   Overcast
8:55 AM 33.8 °F 28.6 °F 33.8 °F 100% 29.83 in 10.0 mi NE 5.8 mph - N/A   Mostly Cloudy
9:15 AM 33.8 °F 27.7 °F 33.8 °F 100% 29.83 in 10.0 mi ENE 6.9 mph - N/A   Scattered Clouds
9:35 AM 33.8 °F 27.7 °F 33.8 °F 100% 29.83 in 10.0 mi ENE 6.9 mph - N/A   Partly Cloudy
9:55 AM 33.8 °F 27.0 °F 33.8 °F 100% 29.83 in 10.0 mi ENE 8.1 mph - N/A   Mostly Cloudy
10:15 AM 33.8 °F 27.7 °F 33.8 °F 100% 29.83 in 10.0 mi ENE 6.9 mph - N/A   Mostly Cloudy
10:35 AM 32.0 °F 25.6 °F 32.0 °F 100% 29.82 in 10.0 mi East 6.9 mph - N/A   Scattered Clouds
10:55 AM 32.0 °F 23.0 °F 32.0 °F 100% 29.80 in 10.0 mi ESE 11.5 mph - N/A   Scattered Clouds
11:15 AM 32.0 °F 23.0 °F 32.0 °F 100% 29.79 in 10.0 mi ESE 11.5 mph - N/A   Partly Cloudy
11:35 AM 32.0 °F 23.0 °F 32.0 °F 100% 29.79 in 10.0 mi SE 11.5 mph - N/A   Partly Cloudy
11:55 AM 32.0 °F 24.2 °F 32.0 °F 100% 29.79 in 10.0 mi ESE 9.2 mph - N/A   Scattered Clouds
12:15 PM 32.0 °F 24.2 °F 32.0 °F 100% 29.77 in 10.0 mi ESE 9.2 mph - N/A   Partly Cloudy
12:35 PM 32.0 °F 23.6 °F 32.0 °F 100% 29.76 in 10.0 mi East 10.4 mph - N/A   Partly Cloudy
12:55 PM 32.0 °F 25.6 °F 32.0 °F 100% 29.75 in 10.0 mi East 6.9 mph - N/A   Clear
1:15 PM 32.0 °F 24.2 °F 32.0 °F 100% 29.73 in 10.0 mi East 9.2 mph - N/A   Partly Cloudy
1:35 PM 32.0 °F 24.2 °F 32.0 °F 100% 29.71 in 10.0 mi East 9.2 mph - N/A   Scattered Clouds
1:55 PM 32.0 °F 24.2 °F 32.0 °F 100% 29.70 in 10.0 mi ESE 9.2 mph - N/A   Scattered Clouds
2:15 PM 32.0 °F 25.6 °F 32.0 °F 100% 29.69 in 10.0 mi ESE 6.9 mph - N/A   Clear
2:35 PM 32.0 °F 24.8 °F 32.0 °F 100% 29.68 in 10.0 mi ESE 8.1 mph - N/A   Partly Cloudy
2:55 PM 32.0 °F 25.6 °F 32.0 °F 100% 29.67 in 10.0 mi ESE 6.9 mph - N/A   Partly Cloudy
3:15 PM 32.0 °F 28.7 °F 32.0 °F 100% 29.66 in 10.0 mi East 3.5 mph - N/A   Partly Cloudy
3:35 PM 33.8 °F 30.8 °F 33.8 °F 100% 29.66 in 10.0 mi NE 3.5 mph - N/A   Clear
3:55 PM 32.0 °F 28.7 °F 32.0 °F 100% 29.65 in 10.0 mi ENE 3.5 mph - N/A   Clear
4:15 PM 32.0 °F 28.7 °F 32.0 °F 100% 29.64 in 10.0 mi East 3.5 mph - N/A   Clear
4:35 PM 32.0 °F 27.5 °F 32.0 °F 100% 29.64 in 10.0 mi ENE 4.6 mph - N/A   Clear
4:55 PM 32.0 °F 24.8 °F 32.0 °F 100% 29.64 in 10.0 mi NNW 8.1 mph - N/A   Clear
5:15 PM 32.0 °F 28.7 °F 32.0 °F 100% 29.63 in 10.0 mi NE 3.5 mph - N/A   Clear
5:35 PM 32.0 °F 28.7 °F 32.0 °F 100% 29.63 in 10.0 mi North 3.5 mph - N/A   Clear
5:55 PM 32.0 °F - 32.0 °F 100% 29.63 in 10.0 mi Calm Calm - N/A   Mostly Cloudy
6:15 PM 32.0 °F 27.5 °F 32.0 °F 100% 29.62 in 10.0 mi NE 4.6 mph - N/A   Mostly Cloudy
6:35 PM 30.2 °F 22.6 °F 30.2 °F 100% 29.62 in 9.0 mi NNE 8.1 mph - N/A   Partly Cloudy
6:55 PM 30.2 °F 24.3 °F 30.2 °F 100% 29.62 in 7.0 mi NE 5.8 mph - N/A   Clear
7:15 PM 30.2 °F 22.6 °F 30.2 °F 100% 29.62 in 5.0 mi NNE 8.1 mph - N/A   Scattered Clouds
7:35 PM 28.4 °F 20.4 °F 28.4 °F 100% 29.62 in 0.2 mi NNE 8.1 mph - N/A Fog Light Freezing Fog
7:55 PM 30.2 °F 22.6 °F 30.2 °F 100% 29.61 in 0.5 mi NNE 8.1 mph - N/A Fog Light Freezing Fog
8:15 PM 30.2 °F 23.4 °F 30.2 °F 100% 29.60 in 0.2 mi NE 6.9 mph - N/A Fog Light Freezing Fog
8:35 PM 30.2 °F 23.4 °F 30.2 °F 100% 29.62 in 0.2 mi North 6.9 mph - N/A Fog Light Freezing Fog
8:55 PM 30.2 °F 24.3 °F 30.2 °F 100% 29.60 in 0.2 mi NNE 5.8 mph - N/A Fog Light Freezing Fog
9:15 PM 28.4 °F 20.4 °F 28.4 °F 100% 29.60 in 0.2 mi NNE 8.1 mph - N/A Fog Light Freezing Fog
9:35 PM 28.4 °F 19.1 °F 28.4 °F 100% 29.60 in 0.2 mi North 10.4 mph - N/A Fog Light Freezing Fog
9:55 PM 28.4 °F 18.5 °F 28.4 °F 100% 29.59 in 0.2 mi NNE 11.5 mph - N/A Fog Light Freezing Fog
10:15 PM 30.2 °F 20.8 °F 30.2 °F 100% 29.61 in 0.2 mi NNE 11.5 mph - N/A   Overcast
10:35 PM 28.4 °F 17.5 °F 28.4 °F 100% 29.62 in 0.2 mi North 13.8 mph - N/A Fog Light Freezing Fog
10:55 PM 28.4 °F 18.5 °F 28.4 °F 100% 29.61 in 0.2 mi NNE 11.5 mph - N/A Fog Light Freezing Fog
11:15 PM 28.4 °F 17.0 °F 28.4 °F 100% 29.64 in 0.2 mi North 15.0 mph - N/A Fog Light Freezing Fog
11:35 PM 28.4 °F 15.8 °F 28.4 °F 100% 29.63 in 0.2 mi North 18.4 mph - N/A Fog Light Freezing Fog
11:55 PM 28.4 °F 16.2 °F 28.4 °F 100% 29.62 in 0.2 mi North 17.3 mph - N/A Fog Light Freezing Fog